Tracking 19224 objects as of 22-Jul-2018
HD Live streaming from Space Station
objects crossing your sky now

COSMOS 2148

Track COSMOS 2148 now!
10-day predictions
COSMOS 2148 is classified as:


NORAD ID: 21304
Int'l Code: 1991-033F
Perigee: 1,387.4 km
Apogee: 1,424.2 km
Inclination: 82.6 °
Period: 113.8 minutes
Semi major axis: 7776 km
RCS: 1.1839 m2 (large)
Launch date: May 16, 1991
Source: Commonwealth of Independent States (former USSR) (CIS)
Launch site: PLESETSK MISSILE AND SPACE COMPLEX (PKMTR)
aabbcc
Your satellite tracking list
Your tracking list is empty




NASA's NSSDC Master Catalog

Two Line Element Set (TLE):
1 21304U 91033F   18202.52322149 +.00000022 +00000-0 +60815-4 0  9995
2 21304 082.5751 326.3043 0023663 060.3993 068.2407 12.65905643255720
Source of the keplerian elements: AFSPC